Location: Eyeline Observatory
(43.2182°N, 78.8632°W)
Time: 19:15:35
(UTC-04:00)

Vanguard 2 - Pass Details

Date: 02 February 2018
Orbit: 553 x 2940 km, 32.9° (Epoch: 26 May)

Event Time Altitude Azimuth Distance (km) Brightness Sun altitude
Rises 01:04:03 0° 238° (WSW) 2,811 - -62.6°
Reaches altitude 10° 01:06:20 10° 224° (SW) 2,031 - -62.4°
Maximum altitude 01:10:11 26° 167° (SSE) 1,479 - -62.2°
Drops below altitude 10° 01:15:22 10° 112° (ESE) 2,813 - -61.8°
Sets 01:19:10 0° 102° (ESE) 4,177 - -61.5°
